Theta_e
293 293 293 293 292 291 290 289 288 288 288 287 287 287 287 287 287 287 287 287 287 287 287 286 286 286 286 286 286 286 286 286 285 285 285 285 285 285 285 285 285 285 285 285 285 285 286 286 287 289 291 291 292 292 292 292 292 292 292 293 293 293
292 292 292 292 292 291 290 288 288 288 288 288 287 287 287 287 287 287 287 287 287 287 286 286 286 286 286 286 286 286 286 285 285 285 285 285 285 285 285 285 285 285 285 285 285 285 285 285 285 286 287 288 290 291 291 291 291 292 292 292 292 292
292 292 292 292 291 291 290 289 289 289 288 288 288 288 287 287 286 286 287 286 286 286 286 286 286 285 285 285 286 286 286 285 285 284 284 284 284 284 284 284 284 284 285 285 285 285 285 285 285 285 285 286 287 288 289 290 291 291 291 291 291 292
292 291 292 291 290 290 290 290 289 289 289 288 288 288 287 287 286 286 286 286 286 286 286 286 285 285 285 285 285 285 285 285 285 284 284 284 284 284 284 284 284 284 284 284 284 285 285 285 285 285 285 285 285 286 286 288 289 290 290 291 291 291
291 291 291 290 290 291 290 290 289 289 288 288 288 288 287 287 287 286 286 285 285 285 285 285 285 284 284 284 284 284 284 285 284 284 284 284 284 284 284 284 284 284 284 284 284 284 284 284 284 285 285 285 285 285 285 286 286 288 289 290 290 290
290 291 291 290 290 291 290 290 289 289 288 288 288 287 287 287 287 286 286 285 285 285 285 285 284 284 284 284 283 283 283 284 283 283 284 283 284 284 284 284 284 284 284 284 284 284 284 284 284 284 284 284 285 285 285 285 285 286 286 287 288 289
290 290 290 290 290 290 289 290 289 289 289 288 288 288 287 287 287 286 286 286 286 286 286 285 285 285 284 284 283 283 283 283 283 283 283 283 283 283 283 284 284 284 284 283 283 283 283 283 283 283 284 284 284 284 284 285 285 285 285 286 286 287
289 290 290 289 289 289 289 289 289 289 289 288 288 288 287 287 287 287 286 286 286 286 286 286 285 285 284 284 284 283 283 283 282 282 282 282 282 282 282 282 282 282 282 283 283 283 283 283 283 283 283 283 284 284 284 284 284 285 285 285 285 285
289 289 289 289 289 289 289 289 289 289 289 288 288 288 287 287 287 287 286 286 286 286 285 285 285 285 284 284 283 283 283 283 283 282 282 282 282 282 282 281 281 281 281 281 281 282 282 282 282 282 283 283 283 284 284 284 284 284 285 285 285 285
289 288 289 290 289 289 289 289 289 289 289 288 288 288 288 287 287 287 286 286 286 285 285 285 284 284 284 283 283 283 282 282 282 282 282 282 282 282 281 281 281 281 280 280 280 280 280 280 281 281 282 282 283 283 283 284 284 284 284 285 285 285
289 288 290 290 290 290 290 290 290 289 289 288 288 288 288 287 287 287 286 286 285 285 285 284 284 284 283 283 282 282 282 282 282 281 281 281 281 281 281 281 280 280 280 279 279 279 279 279 279 280 280 281 282 282 283 283 283 284 284 285 285 285
287 289 290 290 290 290 290 290 290 289 289 288 288 288 288 287 287 287 286 286 285 285 284 284 283 283 282 282 282 281 281 281 281 281 280 280 280 280 280 280 280 279 279 279 278 278 278 278 278 279 279 280 281 282 283 283 283 284 284 285 285 285
286 288 289 290 290 290 290 290 290 289 289 289 288 288 288 287 287 286 286 285 285 285 284 283 282 282 281 281 281 281 281 281 280 280 279 279 279 279 279 279 279 278 278 278 278 277 277 277 277 277 278 279 281 282 282 283 283 283 284 284 284 284
286 287 289 290 290 290 290 290 289 289 289 289 288 288 287 287 286 286 285 285 285 284 283 282 281 281 280 280 280 280 280 280 280 279 279 279 279 279 279 278 278 277 277 277 277 277 276 276 277 277 277 278 280 280 281 281 282 283 283 283 284 284
287 288 289 290 290 290 290 289 289 289 289 288 288 287 287 286 285 285 284 284 284 283 281 280 280 280 280 280 280 280 279 279 278 278 278 278 278 278 277 277 276 276 276 276 276 276 276 276 276 276 277 278 278 279 280 280 281 281 282 283 283 283
288 289 290 290 290 289 289 289 289 288 288 287 287 286 285 285 284 284 284 284 282 281 279 279 279 279 278 278 278 277 277 276 276 276 276 276 276 275 275 275 275 275 275 275 275 275 275 275 275 275 276 277 278 278 279 279 280 280 281 282 282 282
289 289 289 289 289 289 288 288 288 287 287 286 285 285 284 284 284 284 283 281 280 278 278 278 277 277 277 276 275 275 274 274 274 274 274 274 274 273 273 273 273 273 273 273 273 273 273 273 274 274 275 276 276 277 278 278 278 279 279 280 280 281
290 289 289 288 288 288 287 287 286 286 285 284 284 284 283 283 282 281 280 278 277 277 277 276 276 275 274 273 273 273 272 272 272 272 272 271 271 271 271 271 271 271 271 272 272 272 272 272 272 273 274 274 275 275 276 276 276 277 277 278 278 279
290 289 289 288 287 287 286 285 285 284 284 283 283 283 282 280 279 278 277 276 276 275 275 274 273 272 272 271 271 271 270 270 270 269 269 269 269 269 269 269 269 269 269 269 270 270 270 270 270 271 272 272 273 273 274 274 274 275 275 276 276 277
289 288 288 287 286 285 284 284 284 283 283 282 281 280 279 277 276 275 275 274 274 273 272 271 271 270 270 269 269 269 268 268 268 267 267 267 267 267 267 267 267 267 267 267 268 268 268 268 268 269 269 270 270 271 271 272 273 273 274 274 275 275
288 287 286 286 284 283 283 283 282 282 281 279 278 277 276 275 274 273 273 272 271 270 270 269 269 268 268 268 267 267 266 266 266 266 266 266 266 266 266 266 266 266 266 266 266 266 266 266 266 266 267 268 269 270 270 271 272 272 273 273 274 274
287 286 285 284 282 281 281 281 281 280 278 276 275 274 274 273 272 271 271 270 269 268 268 267 267 267 266 266 266 265 265 265 265 265 265 265 264 264 264 265 265 265 265 265 265 265 265 265 265 265 266 267 268 269 270 270 271 272 272 272 273 273
286 284 282 281 280 280 280 280 278 277 275 274 273 273 272 271 270 269 269 268 267 267 266 266 266 265 265 264 264 264 264 264 264 264 264 264 264 264 264 264 264 264 264 264 264 264 264 264 265 265 266 266 267 268 269 270 270 271 271 272 272 273
283 281 280 279 279 278 278 277 276 275 273 273 272 271 270 269 269 268 267 266 266 265 265 265 265 264 264 263 263 263 263 263 263 263 263 263 263 263 263 263 263 263 263 264 264 264 264 264 264 265 265 266 267 268 268 269 270 270 271 271 272 272
280 279 278 277 277 276 276 275 274 273 272 271 271 270 269 269 268 267 266 266 265 265 265 265 264 263 263 263 263 263 263 263 263 263 263 263 263 263 263 263 263 263 263 263 263 263 263 264 264 264 265 265 266 267 268 269 269 270 270 270 270 270
278 277 276 275 274 274 274 273 272 271 270 270 270 269 268 267 267 266 265 265 265 265 265 264 263 263 263 263 263 263 263 263 263 263 263 263 263 262 263 262 262 263 262 263 263 263 263 263 264 264 265 265 266 267 268 268 269 269 270 270 270 270
276 275 274 273 273 272 272 271 270 269 269 269 268 267 267 266 265 265 264 264 264 264 264 263 263 263 263 263 262 262 262 262 262 262 262 262 262 262 262 262 262 262 262 262 262 263 263 263 264 264 265 265 266 267 268 268 269 269 269 269 270 270
275 274 273 272 272 271 270 270 269 269 269 268 267 266 265 265 264 264 264 263 263 264 263 263 263 262 262 262 262 262 262 262 262 262 262 262 261 261 261 261 262 262 262 262 263 263 263 264 264 265 265 265 266 266 267 267 268 269 269 270 270 270
274 273 272 271 271 270 269 269 268 268 268 267 266 265 265 264 264 263 263 263 263 263 263 262 262 262 262 262 262 262 262 262 262 261 261 261 261 261 261 261 262 262 263 263 263 264 265 265 266 266 266 266 267 267 267 267 267 268 268 268 269 269
273 272 271 270 269 268 268 267 268 268 267 266 266 265 264 263 263 263 262 262 262 262 262 262 262 262 262 261 261 261 261 261 261 261 261 261 261 261 262 262 263 263 264 265 265 266 266 267 267 267 268 268 268 268 268 268 268 268 268 268 268 269
272 271 270 269 268 267 267 267 267 268 267 266 265 264 263 263 263 262 262 262 262 262 262 262 261 261 261 261 261 261 261 261 261 262 262 262 262 263 264 264 265 266 266 267 267 267 268 268 268 268 269 270 270 270 271 271 271 271 270 270 271 271
270 269 268 267 267 266 266 266 267 267 266 265 264 263 263 262 262 262 262 262 262 262 261 261 261 261 261 261 261 261 261 261 262 262 262 263 263 264 265 266 267 267 268 268 268 268 268 268 269 269 270 270 271 271 271 271 272 272 272 273 273 273
268 268 267 266 266 265 265 265 267 267 265 264 264 263 262 262 262 261 261 261 261 261 261 261 261 261 261 261 261 261 261 261 261 261 262 263 264 265 265 266 267 267 268 268 268 268 268 269 269 269 270 270 271 271 272 272 273 273 273 274 274 273
267 266 266 265 265 264 264 265 266 266 264 263 263 262 262 262 261 261 261 261 261 261 260 260 260 260 260 261 261 261 261 260 260 261 261 262 263 264 265 266 266 267 267 268 268 268 268 268 269 269 270 270 271 272 272 273 273 273 274 274 274 274
265 265 264 264 264 263 263 264 266 265 263 263 263 262 262 262 261 261 261 261 260 260 260 260 260 260 260 260 260 260 260 260 260 260 261 262 262 263 264 265 265 266 266 267 267 268 268 268 269 270 270 270 271 272 272 273 273 274 274 274 274 274
264 263 263 263 263 262 262 264 265 264 263 262 262 262 262 262 261 261 261 260 260 260 260 260 260 260 260 260 260 260 260 260 260 261 261 261 262 262 263 263 264 265 265 266 266 267 268 268 269 269 270 271 271 272 273 273 273 273 273 273 274 274
262 263 262 262 262 261 261 263 265 263 262 262 262 262 262 261 261 261 260 260 260 260 260 260 260 260 260 260 260 260 260 261 261 261 261 261 262 262 262 263 263 263 264 265 266 267 267 268 269 269 270 271 271 272 273 273 273 273 272 273 273 273
262 262 262 262 261 260 261 263 264 263 262 262 262 261 261 261 260 260 260 260 260 259 259 259 259 259 260 260 260 260 261 261 261 261 261 261 262 262 262 262 263 263 264 265 265 266 266 267 268 269 270 271 272 272 272 272 272 272 272 273 273 274
Wind_Speed
7 7 7 8 10 10 12 13 13 14 15 15 17 18 18 17 16 16 15 15 14 14 15 16 17 18 18 18 18 18 19 20 20 21 21 22 22 22 22 23 23 23 23 23 23 23 23 22 21 19 18 17 18 19 20 21 22 24 26 25 26 27
7 7 7 8 9 9 10 12 12 13 13 13 13 14 15 16 15 14 14 14 13 12 13 14 15 16 17 17 17 18 19 20 20 21 21 21 22 22 22 23 24 24 24 23 23 23 23 23 22 21 20 19 18 18 20 21 21 24 26 26 27 27
7 7 7 7 7 7 7 9 9 9 9 10 10 10 12 13 13 13 12 13 12 12 13 13 15 16 17 17 17 17 19 20 21 22 22 23 23 23 23 23 23 24 24 24 24 24 24 23 23 23 22 22 21 20 19 20 20 22 24 26 27 27
6 6 5 5 5 5 5 5 6 7 7 8 7 6 8 9 10 11 11 11 11 11 11 12 14 17 19 19 19 18 19 21 22 24 24 26 26 26 26 26 25 25 25 25 25 26 26 25 24 24 24 24 24 23 22 21 20 21 23 24 26 27
7 7 6 4 4 4 3 4 4 5 5 6 6 5 6 7 8 10 11 12 12 12 12 12 14 17 20 21 21 20 19 21 23 25 26 27 28 28 28 28 28 29 28 28 28 28 28 27 26 26 25 25 25 25 25 24 23 23 23 23 25 26
9 10 9 8 7 5 5 6 5 4 4 4 6 6 6 7 8 11 13 15 16 17 17 18 19 21 22 22 22 21 20 21 23 24 26 27 29 30 30 30 30 31 31 31 31 31 31 30 29 28 27 26 26 26 26 26 26 26 26 26 25 25
10 11 11 9 8 7 6 7 6 4 3 2 4 7 8 8 8 12 15 17 19 21 22 23 24 25 26 26 26 26 24 24 25 26 26 27 29 30 31 31 31 32 32 32 32 33 33 33 32 31 30 29 28 27 28 28 28 28 28 28 28 27
10 11 11 9 9 7 6 5 4 2 1 2 5 8 10 10 10 13 15 17 20 23 24 25 27 28 29 29 29 29 29 28 29 29 29 30 31 32 32 32 33 33 33 33 34 34 34 34 34 33 33 33 31 30 29 29 30 30 30 30 30 29
8 10 10 9 8 7 5 3 2 2 3 4 5 7 9 10 10 12 14 16 19 22 24 25 26 28 29 30 30 30 30 30 31 32 33 33 33 34 35 35 35 35 34 35 35 35 35 35 36 36 36 35 34 32 31 31 31 31 31 32 32 32
8 11 11 9 9 7 6 5 5 5 5 6 6 7 9 10 10 11 12 14 17 20 22 23 25 27 28 30 30 30 30 31 32 33 34 35 35 36 37 37 38 38 37 37 36 36 36 36 37 38 37 36 36 34 34 34 34 33 33 34 34 34
8 11 12 10 9 9 8 8 8 8 8 8 8 9 11 12 11 12 13 15 17 20 23 24 26 28 29 30 31 31 32 32 33 34 35 36 37 37 38 39 40 40 40 40 39 39 38 38 38 39 37 36 36 36 37 37 37 37 36 36 36 36
10 12 12 12 12 12 11 11 11 10 10 10 11 11 12 12 13 13 15 17 19 22 25 27 28 30 31 31 32 32 33 33 35 36 37 37 37 38 39 39 40 40 41 42 43 43 42 41 41 41 41 37 35 36 37 37 38 38 37 37 38 38
11 13 14 16 17 16 15 14 14 13 12 12 12 10 11 11 12 13 14 16 19 23 28 29 29 30 31 31 32 33 33 34 35 37 38 38 38 38 38 38 40 41 42 42 43 44 44 44 45 46 44 39 35 35 37 38 38 39 38 37 38 38
11 14 17 19 19 18 17 17 16 15 14 13 10 10 10 10 11 12 13 16 19 24 28 28 28 29 30 30 31 32 33 34 35 36 37 36 36 37 38 39 41 42 43 42 42 44 45 46 48 48 44 39 37 36 37 38 39 39 39 39 39 39
15 18 20 20 19 19 19 18 17 14 12 9 9 9 10 10 10 12 15 18 22 26 26 26 26 28 28 29 29 30 32 33 34 35 34 34 36 37 39 41 41 42 42 41 41 43 44 46 50 49 43 38 37 37 37 38 39 39 40 40 40 41
17 19 20 19 18 18 16 14 11 8 6 7 8 8 9 9 11 14 18 22 25 25 24 24 25 26 26 27 27 29 31 32 33 34 34 35 37 38 39 40 41 41 42 41 41 41 43 46 49 47 41 38 37 37 37 38 39 41 42 42 42 42
13 13 14 14 12 10 8 7 5 4 5 6 7 7 7 10 14 18 22 24 24 23 22 23 23 24 26 27 29 30 31 31 32 33 34 34 36 37 38 39 40 41 42 41 40 40 42 46 46 43 40 39 39 38 38 38 39 40 42 44 45 44
9 8 7 6 7 7 5 4 4 5 6 6 5 7 9 13 17 20 22 22 22 21 21 22 24 26 28 30 30 31 32 32 32 33 32 33 35 36 36 37 38 39 40 41 39 39 41 45 44 40 38 39 39 38 38 38 38 39 41 43 44 45
6 5 8 9 8 6 5 5 5 5 5 4 7 10 13 16 19 19 19 19 19 20 21 23 25 28 29 30 30 32 33 32 33 33 32 32 35 36 35 35 36 37 38 39 39 38 40 44 43 38 37 39 38 39 39 39 39 40 41 42 43 43
8 10 11 10 8 7 6 5 4 4 5 8 11 14 16 17 17 17 17 18 19 21 23 24 25 26 28 30 31 33 33 33 33 33 32 31 33 35 35 35 36 39 38 38 39 38 38 43 43 39 37 39 39 38 39 39 39 39 40 42 44 43
12 11 10 9 8 6 4 4 4 6 9 11 13 14 15 15 15 16 17 20 21 22 23 23 24 25 27 30 31 32 32 33 33 33 32 31 32 34 36 34 35 40 40 38 38 38 38 42 45 40 37 38 37 36 36 36 36 36 37 38 39 40
13 11 10 8 6 4 3 5 7 9 11 11 12 13 13 14 15 18 20 22 22 22 22 23 24 25 26 28 30 31 31 31 32 32 32 33 33 34 36 35 35 40 42 39 38 39 39 40 42 39 34 34 35 34 33 34 34 34 35 36 37 39
11 10 9 6 4 2 5 7 9 10 11 11 13 14 15 16 19 21 22 22 23 23 23 23 24 26 26 26 28 30 30 30 30 31 32 34 35 35 36 37 37 40 42 39 37 38 37 36 37 35 32 32 33 32 31 32 32 32 34 36 36 37
11 10 7 4 1 4 7 9 10 10 11 13 15 16 17 19 21 22 23 24 24 24 25 25 25 25 26 26 26 28 30 30 30 31 32 33 34 35 36 38 38 39 40 38 36 36 36 33 33 33 32 32 32 32 31 32 33 33 33 35 35 34
10 7 3 0 3 6 7 9 10 10 13 15 17 18 20 21 23 23 24 25 25 26 26 27 26 26 26 26 27 27 29 30 30 30 30 30 32 34 35 36 36 37 38 36 34 34 34 34 33 33 33 33 33 33 33 33 34 35 34 35 36 36
7 4 1 2 4 6 8 9 10 12 15 17 18 19 21 22 23 24 25 25 26 27 28 28 27 27 26 26 26 27 28 29 30 29 29 29 30 32 33 34 33 33 33 34 33 33 34 35 36 35 34 34 34 34 35 35 36 36 36 37 38 38
3 2 1 3 5 7 8 9 11 15 17 18 18 20 22 22 23 25 25 26 27 28 29 29 28 27 26 25 25 26 27 28 29 29 29 29 30 30 31 32 32 32 32 32 32 33 35 36 38 37 35 34 35 35 36 37 37 37 38 39 40 40
2 2 3 5 6 8 9 11 13 16 17 18 18 20 20 22 24 25 25 26 27 28 29 30 29 28 26 25 24 25 26 27 28 29 29 30 30 29 30 30 31 31 31 30 31 35 37 36 36 36 35 35 35 36 37 37 37 37 38 40 42 43
4 6 6 7 8 9 11 13 14 15 16 17 18 18 19 21 23 24 25 26 28 29 28 28 29 28 27 27 26 26 26 26 27 29 30 31 31 29 28 29 29 29 29 29 31 35 35 34 33 34 34 34 34 35 37 36 36 37 37 39 41 43
6 8 9 9 9 10 13 15 15 15 15 16 16 17 19 21 22 23 25 26 27 28 27 26 27 28 28 28 28 27 27 28 29 30 30 31 31 30 29 28 28 28 29 29 31 32 31 29 29 31 33 34 34 35 35 34 33 34 34 35 38 41
8 8 9 10 11 12 14 15 16 15 15 15 15 16 18 21 22 23 24 25 26 26 26 26 26 27 28 29 29 28 27 27 29 31 32 32 31 30 31 31 30 31 33 33 33 32 30 28 29 32 36 38 38 37 37 35 34 34 33 34 36 38
8 8 10 11 12 13 15 16 16 15 14 13 14 16 18 21 22 23 24 24 25 26 26 27 27 27 28 28 29 29 29 27 26 28 32 34 32 31 32 33 34 36 38 37 36 35 34 35 38 40 41 41 40 40 40 39 38 38 38 38 38 37
8 9 11 12 13 15 16 17 16 14 13 13 14 15 17 20 22 23 24 25 26 27 27 27 27 27 27 28 28 28 30 30 29 28 30 31 32 32 33 34 35 36 37 37 38 38 38 39 41 42 42 43 43 42 40 39 38 37 37 38 37 34
9 10 11 13 15 16 17 16 15 13 12 13 14 15 17 19 20 23 25 26 27 27 27 27 27 27 27 27 28 27 28 29 30 30 30 30 30 31 32 33 34 35 35 36 37 38 38 39 39 42 44 45 43 41 39 38 38 38 37 38 36 30
9 11 12 14 16 17 16 16 15 13 13 13 15 16 18 19 20 23 25 26 26 26 27 26 26 26 26 26 27 27 27 27 27 28 31 33 33 34 35 34 32 31 33 34 35 36 38 39 40 42 44 44 41 39 37 37 38 38 37 38 34 26
10 12 14 16 16 16 16 16 15 13 13 14 15 17 18 20 22 23 24 25 25 25 26 26 25 26 26 27 27 27 27 28 28 27 29 30 31 33 37 40 39 36 33 33 35 36 36 38 40 40 41 41 39 37 37 37 36 35 36 36 33 26
12 14 15 16 15 14 15 16 15 13 13 14 16 18 19 21 23 24 25 25 24 23 24 25 26 26 27 27 27 27 27 28 28 28 28 28 26 27 30 36 42 43 39 36 35 36 36 37 38 38 39 39 38 37 36 33 29 27 29 32 32 29
14 15 15 14 14 14 16 17 15 13 14 15 17 18 20 22 23 23 24 24 23 23 24 25 26 26 27 26 26 27 28 28 28 28 28 28 27 27 27 30 35 40 41 38 35 35 35 35 36 37 38 37 36 35 32 27 22 21 22 25 27 27
Wind_Direction
141 124 110 100 96 85 74 71 67 65 63 60 58 58 58 59 59 58 54 50 47 42 39 35 31 30 27 25 25 24 24 22 20 18 16 14 11 10 9 8 7 7 7 6 6 5 4 3 1 354 345 335 326 321 317 316 315 310 305 302 298 295
136 119 109 98 92 81 72 71 69 66 63 61 60 55 54 55 55 55 52 47 44 38 34 30 25 24 21 17 12 11 12 12 9 8 6 5 4 3 1 0 359 358 357 357 357 357 357 357 357 356 352 346 338 329 321 316 313 310 307 305 302 298
120 107 100 92 88 85 77 70 67 67 62 59 58 51 48 48 47 48 46 40 37 32 27 20 15 15 14 12 8 2 2 1 359 358 356 355 356 356 355 353 353 352 350 349 348 348 348 348 349 349 346 344 341 337 330 323 315 309 306 305 302 300
121 112 103 91 90 93 94 83 72 70 66 59 56 51 48 45 42 42 41 38 34 30 25 13 5 4 6 7 6 360 355 352 351 349 347 347 348 348 348 347 347 346 344 343 341 341 341 340 340 340 339 338 335 334 332 327 321 312 306 303 300 298
146 142 140 141 140 139 150 149 101 77 72 62 53 47 43 38 30 27 28 29 29 26 22 11 2 360 1 2 1 358 351 345 344 344 342 341 341 341 342 342 341 340 340 338 336 335 335 334 333 332 332 330 328 327 326 324 320 315 309 304 300 298
162 164 168 169 170 170 170 166 143 105 93 71 52 41 32 23 11 7 10 13 12 12 10 5 0 357 356 354 353 351 347 340 339 339 338 337 336 337 337 337 336 336 335 333 332 331 329 328 327 325 324 323 321 318 318 318 316 312 309 305 302 300
179 178 175 171 165 157 149 152 151 128 107 72 36 23 14 8 359 355 358 359 359 360 359 357 354 352 350 347 345 344 341 337 335 335 334 333 332 332 332 332 331 331 329 328 327 325 323 322 321 319 317 316 315 312 310 311 310 307 306 303 301 300
184 179 172 171 167 159 153 153 153 132 45 2 359 358 355 353 348 346 348 350 352 352 351 349 347 345 343 341 339 338 336 335 334 333 332 331 330 328 328 328 327 326 325 323 321 320 318 317 315 313 311 310 309 307 304 304 304 303 301 299 299 298
195 187 180 182 181 177 179 186 209 262 307 318 324 334 341 340 335 334 337 341 344 345 343 341 339 337 336 334 333 332 332 331 331 330 329 328 326 325 324 324 323 322 321 318 317 316 314 312 310 308 307 306 305 303 299 297 298 297 295 293 293 294
209 202 196 198 199 202 215 233 248 260 278 292 300 314 328 330 322 319 325 330 334 338 336 333 329 327 327 326 326 326 326 326 326 325 324 323 322 321 321 320 319 318 316 315 313 312 310 309 307 305 303 302 302 300 297 295 294 292 290 288 286 286
215 210 210 214 217 223 232 238 245 257 273 289 296 305 319 324 316 311 315 320 326 331 330 326 322 320 319 319 319 320 320 320 320 320 319 318 317 316 315 315 315 313 312 311 310 309 307 305 303 301 300 299 298 296 294 293 292 291 288 286 284 283
219 219 224 229 229 230 233 237 242 252 270 282 284 293 309 314 307 304 308 313 318 323 324 321 318 315 315 315 315 315 316 315 315 315 314 313 312 311 310 310 309 308 308 308 307 306 305 302 300 298 297 295 293 292 291 290 289 288 286 283 282 281
224 225 226 229 230 230 231 233 236 245 259 264 264 277 295 296 290 291 296 302 310 315 318 316 313 311 311 311 311 311 311 310 310 310 310 309 308 306 306 305 304 304 303 303 303 302 301 299 298 297 297 294 291 289 289 288 287 285 283 281 278 278
220 220 222 225 226 226 226 228 233 240 245 248 255 274 281 274 272 279 287 296 305 310 311 310 308 306 306 307 308 307 306 306 306 307 306 305 303 302 301 301 301 300 300 299 298 297 296 296 295 295 295 293 292 291 290 288 287 285 282 280 278 277
217 217 220 223 225 227 228 230 232 234 237 247 263 268 262 258 267 280 291 299 304 306 307 306 304 303 304 305 305 304 304 304 304 304 303 301 300 299 298 298 298 297 296 295 294 293 293 292 292 293 293 292 292 292 291 290 288 286 283 280 278 277
222 223 226 230 232 231 229 226 224 228 240 253 254 249 249 263 279 290 296 300 303 305 306 305 304 303 303 303 303 302 302 302 301 300 299 298 298 297 296 296 296 295 293 292 291 291 290 289 290 291 292 293 293 293 292 291 288 286 284 281 278 276
233 240 241 239 232 217 205 204 211 225 232 230 232 242 265 283 291 296 298 299 303 306 307 305 303 302 302 303 303 302 300 300 298 297 297 297 296 295 295 294 294 293 292 291 290 290 289 288 289 292 294 295 295 295 294 291 288 285 283 282 280 277
253 253 230 196 180 173 174 188 199 203 206 215 242 273 290 296 296 297 299 301 305 306 304 302 302 302 303 303 303 302 300 300 299 298 299 298 296 294 293 292 292 291 290 291 291 290 289 289 290 293 296 297 297 297 296 293 289 286 283 280 279 277
245 198 163 153 156 162 167 176 188 201 221 256 288 297 300 299 298 300 302 303 303 302 300 300 302 303 303 304 303 302 301 301 301 300 301 300 297 296 294 293 292 290 290 290 291 291 291 291 292 296 298 298 298 298 297 295 291 287 283 280 278 277
178 162 160 159 155 156 167 187 215 254 285 300 304 303 301 300 301 304 305 302 300 300 300 302 303 303 303 303 303 302 302 302 302 302 302 300 297 295 294 293 292 291 290 290 291 292 292 292 294 297 299 298 297 296 295 293 290 287 283 282 281 279
165 161 165 164 158 164 193 235 272 298 307 309 307 303 302 304 307 306 304 301 301 302 302 303 303 304 304 304 303 302 302 302 302 302 301 299 296 294 294 293 292 291 290 290 290 291 291 292 293 297 298 298 296 295 293 290 287 285 283 284 284 283
170 163 161 161 163 184 239 281 300 310 313 311 307 306 307 309 308 305 303 303 304 304 305 307 308 308 307 304 303 303 303 303 303 302 302 300 297 295 294 293 292 291 291 292 292 292 291 292 293 296 298 298 297 296 294 290 286 284 285 285 285 284
168 159 152 153 168 233 286 303 313 318 316 313 310 311 313 311 309 308 308 308 309 310 312 314 314 313 310 306 305 304 303 303 303 302 302 301 299 297 295 294 293 292 292 293 294 293 292 293 293 296 298 299 298 297 296 292 288 287 287 285 283 280
151 147 142 144 237 296 306 311 319 323 319 316 316 316 315 313 313 313 313 313 314 316 318 319 319 316 312 309 308 306 304 304 304 303 302 301 299 297 296 296 295 294 294 295 295 295 295 295 295 296 298 298 298 296 294 292 290 289 288 287 285 284
145 143 138 339 309 313 316 319 324 324 318 318 319 317 316 316 317 317 317 318 319 320 321 322 320 317 313 312 311 307 305 306 306 305 303 302 300 299 297 297 297 296 296 296 296 297 297 297 296 296 296 296 296 295 293 290 289 289 288 287 286 287
139 127 85 327 321 321 321 324 324 320 317 319 320 318 317 319 321 320 320 321 322 323 323 323 320 317 315 315 313 309 307 308 307 306 305 304 302 299 297 297 298 298 297 297 297 298 298 298 297 296 294 293 294 293 293 291 289 288 287 285 283 283
123 90 0 329 324 320 320 323 322 318 318 320 320 319 320 322 322 322 322 323 323 324 324 322 319 317 316 316 315 310 308 309 308 306 307 306 302 298 297 297 298 297 296 296 296 297 297 298 298 296 293 291 290 290 290 289 288 286 285 282 281 280
318 324 330 323 317 313 313 317 319 317 318 320 320 321 323 323 323 323 323 323 323 324 323 320 317 317 317 315 313 311 309 308 307 306 306 304 300 297 295 295 296 296 295 293 293 295 296 297 296 294 292 291 288 286 285 283 281 282 282 280 280 279
304 312 316 312 310 309 310 315 320 320 320 319 320 323 324 324 324 323 322 322 322 322 321 318 316 316 316 315 314 312 310 308 307 305 303 300 297 295 294 294 294 295 293 291 292 294 294 294 294 294 295 293 288 284 282 279 276 275 275 275 276 277
301 306 305 303 306 308 311 317 323 323 322 321 323 326 325 324 324 322 319 321 321 320 318 315 314 314 314 313 314 312 309 309 308 304 298 295 293 292 291 291 291 290 290 292 294 295 295 294 294 295 297 295 292 290 288 285 281 277 271 268 270 273
295 295 294 297 304 309 313 318 324 325 323 324 328 329 326 324 324 321 319 321 320 318 316 314 313 313 312 312 312 310 307 308 307 302 296 293 292 291 290 291 291 291 293 294 295 297 297 296 296 297 300 300 298 297 296 293 290 286 280 275 275 277
287 287 291 298 305 311 314 318 324 326 325 326 332 331 327 325 323 320 319 321 319 316 315 314 312 312 312 312 311 309 308 307 304 298 294 293 294 294 293 293 294 296 298 298 297 298 298 297 299 302 303 302 301 301 300 298 295 294 291 290 289 287
284 288 294 301 308 311 314 318 323 325 326 330 334 332 327 325 322 318 318 319 316 314 314 313 312 312 312 311 310 309 309 309 306 300 296 295 297 298 299 298 297 298 300 301 301 301 301 301 302 303 302 302 304 305 305 303 301 299 297 295 293 289
287 293 297 303 308 311 313 318 322 325 328 332 334 330 327 325 320 316 315 315 313 313 313 312 311 312 311 311 310 310 310 309 307 305 303 303 303 302 301 301 301 302 304 304 304 305 305 304 304 302 302 305 308 308 307 305 304 304 302 300 297 292
291 295 299 304 308 310 313 316 320 326 329 332 333 329 325 323 320 316 313 312 312 312 312 311 311 311 310 309 309 310 310 308 305 304 306 309 311 311 309 307 305 305 307 307 307 308 307 307 306 306 306 308 309 309 308 308 308 308 306 304 300 293
293 297 302 305 308 310 311 312 318 326 328 330 331 328 324 322 321 316 312 311 311 310 310 310 310 310 309 308 308 309 308 305 303 302 305 309 314 316 316 316 315 314 314 313 312 312 311 310 310 309 308 308 308 308 309 310 310 310 309 307 302 292
297 301 304 306 309 310 308 310 317 325 329 330 329 327 324 323 320 316 312 312 312 310 309 309 309 309 307 306 307 308 307 304 304 304 304 306 308 310 311 313 315 317 317 316 315 314 314 313 312 311 309 309 309 310 312 313 313 309 306 304 301 294
299 303 306 309 311 308 305 309 318 326 328 328 328 325 323 321 318 315 314 314 314 313 312 310 310 309 307 306 307 308 306 304 304 303 304 305 305 305 305 306 309 313 315 316 316 317 317 317 316 314 313 312 312 313 315 314 307 298 295 296 296 295